User: anonymous
Location: Houston
(29.7630°N, 95.3630°W)
Time: 22:49:39
(UTC-05:00)
Language:

ISS - Orbit

View from above orbital plane
View from above orbital plane
View from above satellite
View from above satellite

Ground track
Ground track

The orbit data is extracted from the following two-line orbital elements,

1 25544U 98067A   14107.06456255  .00021646  00000-0  38807-3 0   995
2 25544 051.6492 042.4869 0003755 296.3467 171.5211 15.49859636881842
Epoch (UTC): 17 April 2014 01:32:58
Eccentricity: 0.0003755
inclination: 51.6492°
perigee height: 414 km
apogee height: 419 km
right ascension of ascending node: 42.4869°
argument of perigee: 296.3467°
revolutions per day: 15.49859636
mean anomaly at epoch: 171.5211°
orbit number at epoch: 88184

The dashed part of the orbit path shows where the satellite is in the earth's shadow,  

DLR